[[{"header":{"parameterUnit":"m.s-1","parameterCategory":1,"la1":30.2991,"la2":30.254,"lo1":-89.0895,"lo2":-89.0444,"dy":0.0017,"dx":0.0017,"nx":28,"ny":28,"refTime":"2025-07-03T21:00:00:Z","depth":0,"parameterNumber":2,"parameterNumberName":"U-component_of_WINDS"},"data":[0,0,0,0,0,0,0,0,0,0,0,0,0,0,0,0,0,0,0,0,0,0,0,0,0,0,0,0,0,0,0,0,0,0,0,0,0,0,0,0,0,0,0,0,0,0,0,0,0,0,0,0,0,0,0,0,0,0,0.3033,0.3033,0,0.3092,0.3093,0.3093,0.3146,0.3147,0.3147,0.3148,0.3211,0.3212,0.3213,0,0,0,0,0,0,0,0,0,0,0,0,0,0.2967,0.2968,0.3033,0.3033,0.3034,0.3092,0.3093,0.3094,0.3146,0.3147,0.3147,0.3148,0.321,0.3212,0.3213,0,0,0,0,0,0,0,0,0,0,0,0,0,0.3008,0.2968,0.3032,0.3067,0.3071,0.3092,0.3093,0.3094,0.3146,0.3147,0.3148,0.3148,0.321,0.3212,0.3213,0.3206,0,0,0.3218,0.3219,0,0,0,0,0,0,0,0,0.3006,0.301,0.3061,0.3065,0.3069,0.3112,0.3093,0.3131,0.3145,0.3117,0.3148,0.3149,0.3178,0.3182,0.3191,0.3208,0.3211,0.3219,0.322,0.322,0.3221,0,0,0,0,0,0,0,0.3003,0.3008,0.3056,0.3062,0.3067,0.3081,0.3087,0.31,0.3142,0.312,0.3124,0.313,0.318,0.3189,0.3193,0.3212,0.3219,0.322,0.3221,0.3222,0.3226,0.3226,0,0,0,0,0,0,0.2994,0.3005,0.3054,0.3058,0.3039,0.3081,0.3089,0.3098,0.3142,0.3149,0.3129,0.3132,0.3186,0.3191,0.3195,0.3189,0.322,0.3222,0.3223,0.3227,0.3226,0.3225,0,0,0,0,0,0,0.2993,0.2998,0.3052,0.3033,0.3041,0.3081,0.3091,0.3098,0.3108,0.3149,0.3157,0.3131,0.3187,0.3193,0.3203,0.3192,0.3223,0.3224,0.3228,0.3227,0.3226,0.3175,0,0,0,0,0,0,0.2991,0.2997,0.2994,0.3032,0.3041,0.3057,0.309,0.3099,0.311,0.3115,0.3153,0.316,0.3188,0.32,0.3204,0.3194,0.3225,0.3229,0.3228,0.3226,0.3178,0.3172,0.3167,0,0,0,0,0,0.2988,0.2978,0.2993,0.2999,0.3038,0.3056,0.3061,0.3094,0.3109,0.3107,0.3133,0.3159,0.3193,0.32,0.3206,0.3196,0.323,0.3228,0.3226,0.318,0.3173,0.3167,0,0,0,0,0,0,0.2937,0.2983,0.3001,0.3003,0.3025,0.3065,0.3062,0.3085,0.3104,0.3108,0.3148,0.3156,0.3161,0.318,0.3188,0.3191,0.3215,0.3214,0.3178,0.3172,0.3167,0.3161,0.3227,0,0,0,0,0,0.2926,0.2936,0.2977,0.2974,0.2984,0.3021,0.303,0.3053,0.3078,0.3088,0.3115,0.3139,0.3155,0.3165,0.3182,0.3182,0.3191,0.3178,0.3173,0.3168,0.3166,0.3167,0.3162,0.3219,0.3219,0.3219,0,0,0.2904,0.293,0.2934,0.2965,0.2985,0.2994,0.3029,0.3038,0.3046,0.309,0.31,0.3121,0.315,0.3154,0.3158,0.3171,0.3153,0.3166,0.3162,0.3163,0.3165,0.3159,0.3155,0.3217,0.3218,0.3218,0,0,0.2867,0.2888,0.2888,0.2908,0.2937,0.2962,0.2962,0.2999,0.3014,0.3025,0.3058,0.3069,0.3096,0.3115,0.3129,0.3101,0.3125,0.3106,0.3077,0.3078,0.3073,0.3069,0.3058,0.3054,0.3104,0.3104,0.3104,0,0.2835,0.2851,0.2886,0.2893,0.2905,0.2945,0.2946,0.2964,0.2997,0.3005,0.302,0.3054,0.3077,0.3086,0.3079,0.3089,0.3091,0.31,0.3071,0.3067,0.3064,0.3054,0.305,0.3101,0.3101,0.3102,0.3102,0,0.281,0.282,0.2817,0.2848,0.286,0.2864,0.29,0.2909,0.2932,0.2955,0.2966,0.2995,0.3019,0.3023,0.3045,0.3035,0.3042,0.3063,0.3087,0.3056,0.3047,0.3044,0.3097,0.3098,0.3099,0.31,0,0,0.2741,0.2792,0.279,0.2804,0.284,0.2849,0.2856,0.2878,0.2885,0.2908,0.2914,0.2936,0.2956,0.2971,0.2996,0.2997,0.2972,0.3018,0.3019,0.3007,0.2962,0.2944,0.2939,0.2989,0.2988,0.2988,0.2959,0,0.2709,0.2721,0.2753,0.2756,0.2766,0.2805,0.2811,0.2834,0.2857,0.2869,0.2895,0.291,0.2935,0.2944,0.2947,0.2974,0.2963,0.2977,0.2995,0.2995,0.2984,0.2935,0.2917,0.2888,0.2956,0.2955,0.2955,0,0.2673,0.2692,0.2695,0.2731,0.2737,0.2741,0.2764,0.2776,0.2803,0.282,0.2837,0.2865,0.2875,0.2899,0.2912,0.2921,0.2931,0.2946,0.2945,0.2947,0.2971,0.2934,0.288,0.2874,0.295,0.2951,0.2951,0,0.2621,0.2648,0.2653,0.2664,0.2707,0.2709,0.2727,0.2755,0.2767,0.2788,0.2796,0.2818,0.283,0.2847,0.288,0.2895,0.289,0.2917,0.2904,0.2903,0.29,0.2899,0.2844,0.2909,0.2909,0.2909,0.2909,0,0.2581,0.2581,0.263,0.2633,0.2634,0.2673,0.2673,0.2695,0.2721,0.2729,0.2766,0.2773,0.2818,0.2831,0.2857,0.2864,0.287,0.2884,0.289,0.2879,0.2877,0.2885,0.2887,0.2908,0.2908,0.2908,0.2908,0,0.2521,0.2555,0.2562,0.2602,0.2612,0.2611,0.2646,0.2651,0.2676,0.2687,0.2691,0.2732,0.2749,0.2784,0.2812,0.283,0.283,0.2843,0.282,0.2824,0.2808,0.2809,0.2755,0.275,0.2819,0.2818,0.2817,0,0.2492,0.2493,0.2533,0.2541,0.2557,0.2569,0.2581,0.262,0.2631,0.2663,0.2664,0.2684,0.2701,0.2727,0.2759,0.278,0.2793,0.2773,0.2797,0.2785,0.2791,0.279,0.279,0.2767,0.2766,0.2766,0.2765,0,0.2437,0.2454,0.2469,0.249,0.2503,0.2521,0.2542,0.2547,0.259,0.2601,0.2618,0.2632,0.266,0.2679,0.2705,0.2725,0.2752,0.2758,0.2756,0.2743,0.2729,0.2735,0.2804,0.2758,0.2759,0.2759,0.276,0.276,0.2391,0.2394,0.2422,0.2438,0.2457,0.2476,0.2482,0.2508,0.2523,0.2548,0.2571,0.2586,0.2615,0.2652,0.2671,0.2684,0.2697,0.2694,0.2693,0.2692,0.2686,0.2728,0.2689,0.2689,0.2689,0.269,0.269,0,0.2337,0.2357,0.2371,0.2398,0.2411,0.2436,0.246,0.2469,0.2482,0.2506,0.2523,0.2543,0.2562,0.2596,0.2619,0.2622,0.2635,0.2627,0.2626,0.263,0.2674,0.2672,0.2616,0.2616,0.2616,0.2616,0.2616,0.2616,0.2309,0.2314,0.2334,0.235,0.2371,0.2385,0.2397,0.2414,0.2434,0.2455,0.247,0.2492,0.2521,0.2546,0.2564,0.2574,0.258,0.2567,0.258,0.262,0.2627,0.2633,0.2632,0.2568,0.2568,0.2535,0.2535,0.2535]},{"header":{"parameterUnit":"m.s-1","parameterCategory":1,"la1":30.2991,"la2":30.254,"lo1":-89.0895,"lo2":-89.0444,"dy":0.0017,"dx":0.0017,"nx":28,"ny":28,"refTime":"2025-07-03T21:00:00:Z","depth":0,"parameterNumber":3,"parameterNumberName":"V-component_of_WINDS"},"data":[0,0,0,0,0,0,0,0,0,0,0,0,0,0,0,0,0,0,0,0,0,0,0,0,0,0,0,0,0,0,0,0,0,0,0,0,0,0,0,0,0,0,0,0,0,0,0,0,0,0,0,0,0,0,0,0,0,0,-0.2141,-0.214,0,-0.2055,-0.2054,-0.2053,-0.2055,-0.2057,-0.2058,-0.2059,-0.1971,-0.1968,-0.1964,0,0,0,0,0,0,0,0,0,0,0,0,0,-0.2309,-0.2306,-0.2141,-0.214,-0.2139,-0.2055,-0.2054,-0.2053,-0.2055,-0.2057,-0.2058,-0.2059,-0.1972,-0.1968,-0.1964,0,0,0,0,0,0,0,0,0,0,0,0,0,-0.2231,-0.2305,-0.2141,-0.213,-0.2128,-0.2055,-0.2054,-0.2053,-0.2055,-0.2057,-0.2058,-0.206,-0.1974,-0.1969,-0.1964,-0.1897,0,0,-0.1948,-0.1946,0,0,0,0,0,0,0,0,-0.2235,-0.2225,-0.2132,-0.213,-0.2128,-0.2068,-0.2081,-0.2,-0.2054,-0.2083,-0.2059,-0.2061,-0.2002,-0.1995,-0.1975,-0.1892,-0.1889,-0.1947,-0.1944,-0.1942,-0.1941,0,0,0,0,0,0,0,-0.2241,-0.2229,-0.2107,-0.2131,-0.2129,-0.213,-0.2121,-0.2066,-0.2033,-0.208,-0.208,-0.207,-0.2001,-0.198,-0.1973,-0.1887,-0.1948,-0.1943,-0.194,-0.1938,-0.1752,-0.175,0,0,0,0,0,0,-0.2248,-0.2233,-0.211,-0.2104,-0.2187,-0.2126,-0.2115,-0.2085,-0.2034,-0.2028,-0.2069,-0.2071,-0.1987,-0.1979,-0.1969,-0.1891,-0.1942,-0.1937,-0.1934,-0.1753,-0.1751,-0.1749,0,0,0,0,0,0,-0.2252,-0.2237,-0.2113,-0.2169,-0.2153,-0.2121,-0.2087,-0.2083,-0.2061,-0.2025,-0.202,-0.2053,-0.1988,-0.1977,-0.1916,-0.1888,-0.1935,-0.193,-0.1756,-0.1753,-0.175,-0.1732,0,0,0,0,0,0,-0.2257,-0.2239,-0.2212,-0.2168,-0.215,-0.206,-0.2085,-0.208,-0.2052,-0.2054,-0.2009,-0.2003,-0.1989,-0.1924,-0.1911,-0.1882,-0.1926,-0.1758,-0.1754,-0.1751,-0.1735,-0.1729,-0.1724,0,0,0,0,0,-0.2263,-0.2209,-0.221,-0.2196,-0.2116,-0.2058,-0.2048,-0.2033,-0.205,-0.2024,-0.2002,-0.2004,-0.1893,-0.1917,-0.1903,-0.1872,-0.176,-0.1755,-0.1751,-0.1738,-0.1731,-0.1724,0,0,0,0,0,0,-0.2249,-0.2203,-0.2204,-0.2134,-0.21,-0.2059,-0.2025,-0.2025,-0.1985,-0.1988,-0.1972,-0.1962,-0.1902,-0.188,-0.1908,-0.1807,-0.1829,-0.1821,-0.1824,-0.1816,-0.1811,-0.1818,-0.1922,0,0,0,0,0,-0.2238,-0.2195,-0.2157,-0.2099,-0.2082,-0.2057,-0.2031,-0.2023,-0.1987,-0.1972,-0.1945,-0.1911,-0.1869,-0.1841,-0.18,-0.1732,-0.1724,-0.1704,-0.1699,-0.1694,-0.1689,-0.1656,-0.1648,-0.1735,-0.1735,-0.1736,0,0,-0.2215,-0.2185,-0.2158,-0.2096,-0.2069,-0.2026,-0.2044,-0.1997,-0.1966,-0.1965,-0.1907,-0.1886,-0.1847,-0.1784,-0.1755,-0.1764,-0.1663,-0.1689,-0.1686,-0.1683,-0.1651,-0.1643,-0.1635,-0.1733,-0.1733,-0.1734,0,0,-0.2151,-0.2122,-0.2074,-0.2047,-0.2006,-0.199,-0.1978,-0.1937,-0.1924,-0.1865,-0.1866,-0.1828,-0.1754,-0.1728,-0.1705,-0.1636,-0.1638,-0.1622,-0.1594,-0.1562,-0.1555,-0.1549,-0.1528,-0.152,-0.1617,-0.1617,-0.1617,0,-0.2128,-0.2062,-0.2048,-0.2002,-0.1976,-0.1975,-0.1927,-0.1902,-0.1849,-0.1832,-0.1844,-0.1755,-0.1727,-0.166,-0.1644,-0.1624,-0.1612,-0.1628,-0.1557,-0.1551,-0.1545,-0.1525,-0.1517,-0.1615,-0.1615,-0.1616,-0.1616,0,-0.2037,-0.1992,-0.1958,-0.1909,-0.188,-0.1832,-0.1813,-0.1785,-0.178,-0.1763,-0.1706,-0.1674,-0.1629,-0.1612,-0.1605,-0.1545,-0.1553,-0.1561,-0.1582,-0.1536,-0.1517,-0.1508,-0.1613,-0.1614,-0.1614,-0.1615,0,0,-0.1961,-0.1908,-0.1896,-0.1876,-0.1833,-0.1798,-0.1752,-0.1709,-0.1687,-0.1651,-0.1615,-0.1554,-0.1563,-0.1537,-0.1528,-0.15,-0.1452,-0.1512,-0.1511,-0.1505,-0.1388,-0.1383,-0.1374,-0.1453,-0.1451,-0.145,-0.1392,0,-0.1895,-0.1815,-0.1802,-0.1732,-0.1692,-0.1693,-0.1653,-0.1624,-0.1607,-0.1573,-0.1555,-0.1514,-0.1527,-0.1512,-0.1483,-0.1464,-0.1429,-0.1468,-0.1421,-0.1419,-0.1433,-0.1364,-0.1358,-0.1304,-0.1384,-0.1383,-0.1382,0,-0.1807,-0.1772,-0.1698,-0.1665,-0.1647,-0.1612,-0.1574,-0.1539,-0.1507,-0.1498,-0.147,-0.1466,-0.1421,-0.1444,-0.1383,-0.141,-0.1391,-0.1379,-0.1376,-0.1373,-0.1399,-0.1361,-0.1287,-0.128,-0.1369,-0.137,-0.1371,0,-0.1764,-0.1698,-0.1646,-0.1628,-0.1586,-0.1563,-0.1544,-0.1513,-0.1489,-0.1455,-0.1441,-0.1401,-0.1381,-0.1351,-0.1338,-0.1355,-0.128,-0.13,-0.1273,-0.1273,-0.1258,-0.1259,-0.1182,-0.1241,-0.1241,-0.1241,-0.1241,0,-0.1693,-0.1649,-0.1627,-0.1595,-0.1546,-0.1534,-0.1486,-0.1468,-0.1442,-0.1408,-0.1405,-0.1374,-0.1357,-0.1323,-0.1312,-0.1266,-0.1256,-0.1249,-0.1247,-0.125,-0.1252,-0.1238,-0.1243,-0.1239,-0.124,-0.124,-0.124,0,-0.1636,-0.1619,-0.1564,-0.153,-0.1521,-0.1487,-0.1459,-0.1429,-0.1414,-0.1372,-0.1361,-0.1338,-0.13,-0.1283,-0.1234,-0.1227,-0.1176,-0.1175,-0.1187,-0.1187,-0.1161,-0.1165,-0.1074,-0.1063,-0.1128,-0.1127,-0.1127,0,-0.1593,-0.156,-0.1524,-0.1501,-0.1483,-0.1446,-0.1423,-0.141,-0.1385,-0.1348,-0.1324,-0.1285,-0.1254,-0.1192,-0.1172,-0.1136,-0.1136,-0.1107,-0.113,-0.1137,-0.1139,-0.1142,-0.1141,-0.1103,-0.1102,-0.1102,-0.1101,0,-0.152,-0.1515,-0.1481,-0.1445,-0.1418,-0.1388,-0.136,-0.1342,-0.1325,-0.1298,-0.1259,-0.1235,-0.1187,-0.115,-0.1114,-0.1096,-0.1097,-0.1094,-0.1086,-0.1091,-0.11,-0.1098,-0.1178,-0.1096,-0.1097,-0.1097,-0.1098,-0.1098,-0.1471,-0.1443,-0.1414,-0.1378,-0.1356,-0.133,-0.1302,-0.1285,-0.1253,-0.1213,-0.1208,-0.1167,-0.1139,-0.109,-0.1071,-0.104,-0.1048,-0.1036,-0.1033,-0.1031,-0.1031,-0.1104,-0.1033,-0.1033,-0.1033,-0.1034,-0.1034,0,-0.1401,-0.1383,-0.135,-0.1312,-0.1284,-0.1287,-0.1257,-0.1234,-0.1198,-0.1172,-0.1142,-0.11,-0.1064,-0.1042,-0.1007,-0.0987,-0.0987,-0.0979,-0.0981,-0.0978,-0.1025,-0.1036,-0.098,-0.098,-0.098,-0.098,-0.098,-0.098,-0.1361,-0.1315,-0.1306,-0.125,-0.1233,-0.1194,-0.1177,-0.1154,-0.1134,-0.1087,-0.1058,-0.1044,-0.102,-0.0984,-0.0953,-0.0948,-0.0936,-0.0928,-0.0924,-0.0968,-0.0974,-0.0979,-0.099,-0.0925,-0.0925,-0.088,-0.0879,-0.0879]}]]